Hourly Weather Roundup
Issued by NWS Central Illinois

Home | Current Version | Previous Version | Text Only | Print | Product List | Glossary On
Versions: 1 2 3 4 5 6 7 8 9 10 11 12 13 14 15 16 17 18 19 20 21 22 23 24 25 26 27 28 29 30 31 32 33 34 35 36 37 38 39 40 41 42 43 44 45 46 47 48 49 50
000
NZUS43 KILX 050210
HWRILX

AREA WEATHER ROUNDUP
NATIONAL WEATHER SERVICE, LINCOLN IL
800 PM CST WED MAR 04 2015


CITY           SKY/WX    TMP DP  RH WIND       PRES   REMARKS
BLOOMINGTON    CLOUDY    17   5  59 NW9       30.34R WCI   6
CHAMPAIGN      MOCLDY    17   7  64 NW17      30.30R WCI   1
DECATUR        CLOUDY    19   5  54 NW14      30.33R WCI   6
EFFINGHAM      CLOUDY    20   4  49 NW10G17   30.33R WCI   9
FLORA          CLOUDY    21   7  56 N13G18    30.30R WCI   8
GALESBURG      PTCLDY    14   5  68 CALM      30.36R
JACKSONVILLE   CLOUDY    20   8  59 NW5       30.37S WCI  13
LACON          PTCLDY    15   3  60 W6        30.37R WCI   6
LAWRENCEVILLE  CLOUDY    21   9  59 N14       30.29R WCI   8
LITCHFIELD     CLOUDY    19   8  61 NW12      30.35R WCI   7
$$


CITY           SKY/WX    TMP DP  RH WIND       PRES   REMARKS
LINCOLN        CLOUDY    20   3  47 N9G16     30.39R WCI  10
MACOMB         MOCLDY    15   9  78 CALM      30.39R
MATTOON        CLOUDY    18   8  65 N17       30.30R WCI   3
MT CARMEL AP   CLOUDY    23  10  58 N9        30.29R WCI  13
OLNEY-NOBLE AP CLOUDY    21  10  63 N9        30.31R WCI  11
PARIS          MOCLDY    18  11  74 NW12      30.29R WCI   5
PEORIA         FAIR      17   2  51 NW5       30.36R WCI  10
PONTIAC        MOCLDY    16   8  71 W7        30.34R WCI   6
RANTOUL        CLOUDY    19   6  57 NW13G18   30.31R WCI   6
ROBINSON       CLOUDY    20   9  62 N12       30.30S WCI   8
SPRINGFIELD    CLOUDY    20   5  52 N8        30.38R WCI  10
TAYLORVILLE    CLOUDY    19   9  63 N14       30.36R WCI   6
$$

...REGIONAL REPORTS...


CITY           SKY/WX    TMP DP  RH WIND       PRES   REMARKS
CHICAGO O`HARE MOCLDY    15  -1  49 NW12      30.27R WCI   2
KANKAKEE       MOCLDY    17   5  61 W9        30.29R WCI   5
MOLINE         PTCLDY    15   0  51 NW9       30.37R WCI   3
MOUNT VERNON   CLOUDY    21   7  53 N8        30.30R WCI  12
PITTSFIELD     CLOUDY    21   8  58 CALM      30.38S
QUINCY         MOCLDY    19   6  57 S3        30.36R
ROCKFORD       PTCLDY    11  -3  53 W9        30.32R WCI  -2
$$


CITY           SKY/WX    TMP DP  RH WIND       PRES   REMARKS
BURLINGTON     PTCLDY    15   5  64 SE3       30.36R
CEDAR RAPIDS   CLEAR     10   2  69 NW7       30.35R WCI  -1
DES MOINES     PTCLDY    17   3  54 NW15      30.37R WCI   2
KIRKSVILLE     NOT AVBL
OTTUMWA        MOCLDY    21   5  50 NW16      30.33R WCI   7
ST LOUIS       CLOUDY    23   4  44 N10       30.36R WCI  12
$$


CITY           SKY/WX    TMP DP  RH WIND       PRES   REMARKS
TERRE HAUTE    CLOUDY    19   8  62 N10       30.27R WCI   7
EVANSVILLE     FOG       19  15  84 N12       30.28R VSB 1   WCI   7
INDIANAPOLIS   CLOUDY    20  11  68 NW9       30.21R WCI   9
LAFAYETTE      MOCLDY    17   8  67 NW13      30.25R WCI   4
MADISON        PTCLDY    11  -5  48 NW6       30.26R WCI   1
MILWAUKEE      PTCLDY    15  -6  39 NW7       30.24R WCI   5
$$




USA.gov is the U.S. government's official web portal to all federal, state and local government web resources and services.